Weather observations for the past three days for
Sacramento Mather Airport
Imperial (Metric)
Date Time (pdt) Wind (mph) Vis. (mi.) Weather Sky Cond. Temperature (ºF) Relative Humidity Wind Chill (°F) Heat Index (°F) Pressure Precipitation (in)
Air Dwpt 6 hour altimeter (in) sea level (mb) 1 hr 3 hr 6 hr
Max. Min.
16 08:35 S 9 10.00 Fair CLR 64.4 50 60% 29.97 0.0
16 08:15 S 8 10.00 Fair CLR 64.4 50 60% 29.97 0.0
16 07:55 S 9 10.00 Fair CLR 62.6 50 64% 29.97 0.0
16 07:35 S 9 10.00 Fair CLR 62.6 51.8 68% 29.96 0.0
16 07:15 SE 10 10.00 Fair CLR 60.8 51.8 72% 29.96 0.0
16 06:55 SE 9 10.00 Fair CLR 60.8 50 68% 29.96 0.0
16 06:35 SE 9 10.00 Fair CLR 59 50 72% 29.95 0.0
16 06:15 SE 8 10.00 Fair CLR 59 50 72% 29.95 0.0
16 05:55 SE 9 10.00 Fair CLR 59 50 72% 29.94 0.0
16 05:35 S 9 10.00 Fair CLR 59 50 72% 29.94 0.0
16 05:15 SE 10 10.00 Fair CLR 59 50 72% 29.93 0.0
16 04:55 SE 9 10.00 Fair CLR 59 50 72% 29.92 0.0
16 04:35 SE 8 10.00 Fair CLR 59 50 72% 29.92 0.0
16 04:15 SE 8 10.00 Fair CLR 60.8 50 68% 29.92 0.0
16 03:55 SE 8 10.00 Fair CLR 60.8 50 68% 29.91 0.0
16 03:35 SE 7 10.00 Fair CLR 60.8 50 68% 29.92 0.0
16 03:15 SE 8 10.00 Fair CLR 60.8 50 68% 29.92 0.0
16 02:55 SE 8 10.00 Fair CLR 60.8 50 68% 29.91 0.0
16 02:35 SE 9 10.00 Fair CLR 60.8 51.8 72% 29.91 0.0
16 02:15 SE 9 10.00 Fair CLR 60.8 51.8 72% 29.91 0.0
16 01:55 SE 9 10.00 Fair CLR 62.6 51.8 68% 29.91 0.0
16 01:30 SE 9 10.00 Fair CLR 62.6 51.8 68% 29.92 0.0
16 01:15 SE 9 10.00 Fair CLR 62.6 51.8 68% 29.92 0.0
16 00:55 SE 8 10.00 Fair CLR 62.6 53.6 73% 29.92 0.0
16 00:35 SE 8 10.00 Fair CLR 64.4 51.8 64% 29.92 0.0
16 00:10 S 8 10.00 Fair CLR 66.2 51.8 60% 29.91 0.0
15 23:55 S 8 10.00 Fair CLR 66.2 51.8 60% 29.91 0.0
15 23:35 S 7 10.00 Fair CLR 66.2 51.8 60% 29.91 0.0
15 23:15 S 8 10.00 Fair CLR 68 53.6 60% 29.91 0.0
15 22:55 SE 7 10.00 Fair CLR 68 51.8 56% 29.91 0.0
15 22:35 S 7 G 14 10.00 Fair CLR 68 51.8 56% 29.91 0.0
15 22:15 S 7 10.00 Fair CLR 69.8 51.8 53% 29.91 0.0
15 21:55 S 10 10.00 Fair CLR 71.6 51.8 50% 29.9 0.0
15 21:35 S 8 10.00 Fair CLR 71.6 51.8 50% 29.9 0.0
15 21:10 S 7 10.00 Fair CLR 73.4 51.8 47% 29.89 0.0
15 20:55 SW 10 10.00 Fair CLR 75.2 51.8 44% 78 29.89 0.0
15 20:35 SW 14 10.00 Fair CLR 77 51.8 42% 78 29.88 0.0
15 20:15 SW 13 10.00 Fair CLR 78.8 51.8 39% 79 29.88 0.0
15 19:55 SW 12 10.00 Fair CLR 82.4 51.8 35% 81 29.88 0.0
15 19:35 SW 12 10.00 Fair CLR 84.2 50 31% 82 29.87 0.0
15 19:15 SW 12 10.00 Fair CLR 86 48.2 27% 83 29.87 0.0
15 18:55 SW 10 10.00 Fair CLR 87.8 48.2 25% 85 29.87 0.0
15 18:35 SW 10 10.00 Fair CLR 87.8 48.2 25% 85 29.88 0.0
15 18:10 SW 10 G 16 10.00 Fair CLR 89.6 48.2 24% 86 29.88 0.0
15 17:55 SW 9 G 16 10.00 Fair CLR 91.4 46.4 21% 88 29.88 0.0
15 17:35 SW 10 10.00 Fair CLR 91.4 48.2 23% 88 29.88 0.0
15 17:15 SW 10 G 17 10.00 Fair CLR 91.4 46.4 21% 88 29.88 0.0
15 16:55 SW 9 9.00 Fair CLR 91.4 46.4 21% 88 29.89 0.0
15 16:35 SW 8 G 14 10.00 Fair CLR 91.4 44.6 20% 88 29.89 0.0
15 16:15 SW 8 10.00 Fair CLR 91.4 46.4 21% 88 29.9 0.0
15 15:55 SW 8 10.00 Fair CLR 91.4 46.4 21% 88 29.9 0.0
15 15:35 SW 9 10.00 Fair CLR 91.4 46.4 21% 88 29.9 0.0
15 15:15 W 7 10.00 Fair CLR 89.6 50 26% 87 29.91 0.0
15 14:55 W 9 10.00 Fair CLR 91.4 48.2 23% 88 29.92 0.0
15 14:35 SW 8 G 14 10.00 Fair CLR 89.6 48.2 24% 86 29.92 0.0
15 14:15 SW 12 G 18 10.00 Fair CLR 87.8 46.4 24% 85 29.94 0.0
15 13:55 SW 8 G 16 10.00 Fair CLR 86 46.4 25% 83 29.95 0.0
15 13:35 SW 8 10.00 Fair CLR 86 46.4 25% 83 29.95 0.0
15 13:15 SW 8 G 15 10.00 Fair CLR 84.2 48.2 29% 82 29.96 0.0
15 12:55 SW 9 10.00 Fair CLR 84.2 48.2 29% 82 29.97 0.0
15 12:35 SW 10 10.00 Fair CLR 82.4 48.2 30% 81 29.98 0.0
15 12:10 SW 10 10.00 Fair CLR 80.6 48.2 32% 80 29.98 0.0
15 11:55 SW 10 10.00 Fair CLR 78.8 48.2 34% 79 29.99 0.0
15 11:35 SW 8 10.00 Fair CLR 77 50 39% 78 29.99 0.0
15 11:15 SW 8 10.00 Fair CLR 77 50 39% 78 30 0.0
15 10:55 S 10 10.00 Fair CLR 75.2 51.8 44% 78 30 0.0
15 10:35 SW 9 10.00 Fair CLR 73.4 51.8 47% 30 0.0
15 10:15 S 10 10.00 Fair CLR 71.6 51.8 50% 30 0.0
15 09:55 S 10 10.00 Fair CLR 71.6 51.8 50% 30.01 0.0
15 09:35 S 8 10.00 Fair CLR 69.8 53.6 57% 30.01 0.0
15 09:10 S 8 10.00 Fair CLR 68 53.6 60% 30.01 0.0
15 08:55 S 8 10.00 Fair CLR 66.2 53.6 64% 30.01 0.0
15 08:35 S 9 10.00 Fair CLR 66.2 53.6 64% 30.01 0.0
15 08:15 S 10 10.00 Fair CLR 64.4 53.6 68% 30.01 0.0
15 07:55 S 10 10.00 Fair CLR 62.6 53.6 73% 30 0.0
15 07:35 S 10 10.00 Fair CLR 62.6 53.6 73% 30 0.0
15 07:15 SE 9 10.00 Fair CLR 62.6 53.6 73% 30 0.0
15 06:55 S 7 10.00 Fair CLR 62.6 53.6 73% 29.99 0.0
15 06:35 S 10 10.00 Fair CLR 60.8 53.6 77% 29.98 0.0
15 06:15 S 9 10.00 Fair CLR 60.8 53.6 77% 29.98 0.0
15 05:55 S 10 10.00 Fair CLR 60.8 51.8 72% 29.97 0.0
15 05:35 SE 7 10.00 Fair CLR 60.8 51.8 72% 29.97 0.0
15 05:15 SE 7 10.00 Fair CLR 62.6 51.8 68% 29.96 0.0
15 04:55 S 8 10.00 Fair CLR 62.6 51.8 68% 29.95 0.0
15 04:35 S 15 10.00 Fair CLR 62.6 51.8 68% 29.94 0.0
15 04:15 S 9 10.00 Fair CLR 62.6 51.8 68% 29.94 0.0
15 03:55 S 8 10.00 Fair CLR 62.6 50 64% 29.93 0.0
15 03:35 S 7 10.00 Fair CLR 62.6 50 64% 29.93 0.0
15 03:15 S 6 10.00 Fair CLR 64.4 51.8 64% 29.93 0.0
15 02:55 S 7 10.00 Fair CLR 64.4 50 60% 29.93 0.0
15 02:35 SE 6 10.00 Fair CLR 64.4 51.8 64% 29.93 0.0
15 02:15 SE 6 10.00 Fair CLR 64.4 53.6 68% 29.93 0.0
15 01:55 SE 7 10.00 Fair CLR 64.4 53.6 68% 29.93 0.0
15 01:35 SE 7 10.00 Fair CLR 64.4 53.6 68% 29.93 0.0
15 01:15 SE 8 10.00 Fair CLR 64.4 53.6 68% 29.93 0.0
15 00:55 SE 8 10.00 Fair CLR 66.2 53.6 64% 29.94 0.0
15 00:35 SE 7 10.00 Fair CLR 66.2 53.6 64% 29.94 0.0
15 00:15 SE 7 10.00 Fair CLR 68 55.4 64% 29.94 0.0
14 23:55 SE 6 10.00 Fair CLR 68 55.4 64% 29.94 0.0
14 23:35 S 7 10.00 Fair CLR 68 55.4 64% 29.93 0.0
14 23:15 S 8 10.00 Fair CLR 69.8 55.4 60% 29.93 0.0
14 22:50 S 8 10.00 Fair CLR 69.8 55.4 60% 29.92 0.0
14 22:35 S 7 10.00 Fair CLR 71.6 55.4 57% 29.92 0.0
14 22:15 S 6 10.00 Fair CLR 71.6 53.6 53% 29.92 0.0
14 21:55 S 7 10.00 Fair CLR 73.4 53.6 50% 29.91 0.0
14 21:35 SW 8 10.00 Fair CLR 75.2 55.4 50% 78 29.9 0.0
14 21:15 SW 9 10.00 Fair CLR 77 55.4 47% 79 29.89 0.0
14 20:55 SW 9 10.00 Fair CLR 78.8 55.4 45% 79 29.88 0.0
14 20:35 SW 12 10.00 Fair CLR 82.4 55.4 40% 82 29.88 0.0
14 20:15 SW 13 10.00 Fair CLR 84.2 55.4 37% 83 29.87 0.0
14 19:55 SW 13 10.00 Fair CLR 89.6 51.8 27% 87 29.87 0.0
14 19:35 SW 12 10.00 A Few Clouds FEW003 FEW010 91.4 51.8 26% 89 29.86 0.0
14 19:15 SW 13 9.00 A Few Clouds FEW003 FEW013 95 51.8 23% 92 29.86 0.0
14 18:55 Vrbl 5 9.00 Fair CLR 98.6 48.2 18% 95 29.86 0.0
14 18:35 W 6 5.00 A Few Clouds with Haze FEW020 98.6 48.2 18% 95 29.86 0.0
14 18:15 NW 6 G 12 7.00 Fair CLR 98.6 48.2 18% 95 29.87 0.0
14 17:55 Vrbl 5 10.00 Fair CLR 98.6 46.4 17% 95 29.87 0.0
14 17:35 Calm 10.00 Fair CLR 98.6 44.6 16% 95 29.88 0.0
14 17:15 NE 5 10.00 Fair CLR 98.6 44.6 16% 95 29.88 0.0
14 16:50 W 5 10.00 Fair CLR 98.6 44.6 16% 95 29.89 0.0
14 16:35 Calm 10.00 Fair CLR 96.8 42.8 16% 93 29.9 0.0
14 16:15 NW 6 10.00 Fair CLR 96.8 39.2 13% 92 29.91 0.0
14 15:55 NW 5 10.00 Fair CLR 96.8 42.8 16% 93 29.92 0.0
14 15:35 N 5 10.00 Fair CLR 95 46.4 19% 91 29.93 0.0
14 15:15 Vrbl 5 10.00 Fair CLR 93.2 48.2 21% 90 29.94 0.0
14 14:55 NW 5 10.00 Fair CLR 91.4 48.2 23% 88 29.95 0.0
14 14:35 S 3 10.00 Fair CLR 89.6 48.2 24% 86 29.96 0.0
14 14:15 Calm 10.00 Fair CLR 87.8 48.2 25% 85 29.96 0.0
14 13:55 Vrbl 5 10.00 Fair CLR 87.8 48.2 25% 85 29.96 0.0
14 13:35 Calm 10.00 Fair CLR 87.8 50 27% 85 29.97 0.0
14 13:15 SW 3 10.00 Fair CLR 86 50 29% 84 29.97 0.0
14 12:55 SW 5 10.00 Fair CLR 84.2 48.2 29% 82 29.98 0.0
14 12:35 Calm 10.00 Fair CLR 84.2 48.2 29% 82 29.98 0.0
14 12:15 Vrbl 6 10.00 Fair CLR 82.4 48.2 30% 81 29.98 0.0
14 11:55 Vrbl 6 G 13 10.00 Fair CLR 82.4 48.2 30% 81 29.99 0.0
14 11:35 SW 8 10.00 Fair CLR 80.6 48.2 32% 80 29.99 0.0
14 11:15 SW 6 10.00 Fair CLR 78.8 48.2 34% 79 30 0.0
14 10:55 W 8 10.00 Fair CLR 77 50 39% 78 30 0.0
14 10:35 SW 9 10.00 Fair CLR 75.2 50 41% 78 30 0.0
14 10:15 SW 12 10.00 Fair CLR 75.2 50 41% 78 30 0.0
14 09:55 SW 14 10.00 Fair CLR 75.2 50 41% 78 30 0.0
14 09:35 SW 14 10.00 Fair CLR 73.4 51.8 47% 30.01 0.0
14 09:15 SW 10 10.00 Fair CLR 69.8 51.8 53% 30 0.0
14 08:55 S 9 10.00 Fair CLR 69.8 51.8 53% 30.01 0.0
14 08:35 S 8 10.00 Fair CLR 69.8 51.8 53% 30 0.0
14 08:15 S 8 10.00 Fair CLR 68 50 53% 30 0.0
14 07:55 S 10 10.00 Fair CLR 68 51.8 56% 30 0.0
14 07:35 S 8 10.00 Fair CLR 68 51.8 56% 29.98 0.0
14 07:15 S 12 10.00 A Few Clouds FEW100 68 51.8 56% 29.97 0.0
14 06:55 S 10 10.00 Mostly Cloudy FEW080 BKN100 BKN120 68 51.8 56% 29.97 0.0
14 06:30 S 10 10.00 A Few Clouds FEW110 68 51.8 56% 29.96 0.0
14 06:15 S 14 10.00 A Few Clouds FEW120 69.8 50 50% 29.96 0.0
14 05:55 S 8 10.00 A Few Clouds FEW090 FEW110 69.8 51.8 53% 29.94 0.0
14 05:35 S 7 10.00 Fair CLR 69.8 51.8 53% 29.93 0.0
14 05:15 S 8 10.00 Fair CLR 69.8 51.8 53% 29.92 0.0
14 04:55 SE 9 10.00 Fair CLR 69.8 51.8 53% 29.91 0.0
14 04:35 S 7 10.00 Fair CLR 71.6 51.8 50% 29.91 0.0
14 04:15 S 8 10.00 Fair CLR 71.6 50 47% 29.9 0.0
14 03:55 S 8 10.00 Fair CLR 71.6 51.8 50% 29.89 0.0
14 03:30 SE 7 10.00 Fair CLR 69.8 50 50% 29.88 0.0
14 03:15 SE 8 10.00 Fair CLR 69.8 50 50% 29.88 0.0
14 02:55 S 7 10.00 Fair CLR 69.8 51.8 53% 29.88 0.0
14 02:35 S 7 10.00 Fair CLR 69.8 51.8 53% 29.88 0.0
14 02:15 SE 6 10.00 Fair CLR 68 50 53% 29.87 0.0
14 01:55 SE 8 G 14 10.00 Fair CLR 68 50 53% 29.88 0.0
14 01:35 SE 9 10.00 Fair CLR 71.6 50 47% 29.88 0.0
14 01:15 S 10 10.00 Fair CLR 71.6 50 47% 29.88 0.0
14 00:55 SE 9 10.00 Fair CLR 71.6 48.2 44% 29.88 0.0
14 00:35 SE 8 10.00 Fair CLR 71.6 46.4 41% 29.87 0.0
14 00:15 SE 8 10.00 Fair CLR 73.4 46.4 38% 29.88 0.0
13 23:55 SE 7 10.00 Fair CLR 73.4 46.4 38% 29.87 0.0
13 23:35 SE 9 10.00 Fair CLR 73.4 46.4 38% 29.87 0.0
13 23:15 SE 8 10.00 Fair CLR 73.4 46.4 38% 29.87 0.0
13 22:55 SE 7 10.00 Fair CLR 73.4 48.2 41% 29.88 0.0
13 22:35 SE 5 10.00 Fair CLR 73.4 46.4 38% 29.87 0.0
13 22:15 Vrbl 6 10.00 Fair CLR 75.2 46.4 36% 77 29.88 0.0
13 21:55 SE 5 10.00 Fair CLR 75.2 48.2 39% 77 29.87 0.0
13 21:30 SW 9 10.00 Fair CLR 77 50 39% 78 29.87 0.0
13 21:15 S 7 10.00 Fair CLR 77 50 39% 78 29.86 0.0
13 20:55 SW 7 10.00 Fair CLR 78.8 50 37% 79 29.85 0.0
13 20:35 S 6 10.00 Fair CLR 78.8 50 37% 79 29.85 0.0
13 20:15 S 8 10.00 A Few Clouds FEW015 FEW029 80.6 50 34% 80 29.85 0.0
13 19:55 SW 12 G 18 8.00 Partly Cloudy FEW004 FEW015 SCT120 84.2 51.8 33% 82 29.83 0.0
13 19:35 SW 9 G 16 10.00 A Few Clouds FEW120 86 51.8 31% 84 29.82 0.0
13 19:15 SW 12 G 20 10.00 Fair CLR 86 50 29% 84 29.83 0.0
13 18:55 S 12 10.00 Fair CLR 87.8 50 27% 85 29.84 0.0
13 18:35 S 10 10.00 Fair CLR 87.8 51.8 29% 85 29.83 0.0
13 18:15 S 14 G 21 10.00 Fair CLR 87.8 51.8 29% 85 29.83 0.0
13 17:55 S 13 G 21 10.00 Fair CLR 89.6 55.4 31% 88 29.83 0.0
13 17:35 S 17 10.00 Fair CLR 93.2 55.4 28% 91 29.81 0.0
13 17:15 S 10 10.00 Fair CLR 98.6 53.6 22% 96 29.8 0.0
13 16:55 SW 10 10.00 Fair CLR 98.6 51.8 21% 96 29.8 0.0
13 16:35 Vrbl 7 10.00 Fair CLR 98.6 51.8 21% 96 29.79 0.0
13 16:15 SW 8 G 15 10.00 Fair CLR 98.6 53.6 22% 96 29.8 0.0
13 15:55 SW 8 G 14 10.00 Fair CLR 96.8 51.8 22% 94 29.8 0.0
13 15:30 SW 10 10.00 Fair CLR 96.8 53.6 23% 95 29.8 0.0
13 15:15 SW 12 10.00 Fair CLR 96.8 53.6 23% 95 29.81 0.0
13 14:55 SW 12 10.00 Fair CLR 96.8 53.6 23% 95 29.81 0.0
13 14:35 SW 12 10.00 Fair CLR 95 51.8 23% 92 29.82 0.0
13 14:15 SW 8 G 15 10.00 Fair CLR 93.2 51.8 24% 90 29.82 0.0
13 13:55 SW 12 10.00 Fair CLR 93.2 53.6 26% 91 29.82 0.0
13 13:35 SW 9 10.00 Fair CLR 91.4 51.8 26% 89 29.82 0.0
13 13:15 W 5 G 12 10.00 Fair CLR 91.4 51.8 26% 89 29.82 0.0
13 12:55 Vrbl 5 10.00 Fair CLR 87.8 51.8 29% 85 29.83 0.0
13 12:30 E 5 10.00 Fair CLR 86 51.8 31% 84 29.83 0.0
13 12:15 Vrbl 6 10.00 Fair CLR 86 51.8 31% 84 29.83 0.0
13 11:55 NW 6 10.00 Fair CLR 84.2 51.8 33% 82 29.83 0.0
13 11:35 N 5 10.00 Fair CLR 82.4 51.8 35% 81 29.85 0.0
13 11:15 Vrbl 3 10.00 Fair CLR 80.6 51.8 37% 80 29.86 0.0
13 10:55 Calm 10.00 Fair CLR 80.6 51.8 37% 80 29.86 0.0
13 10:35 Calm 10.00 Fair CLR 80.6 53.6 39% 80 29.86 0.0
13 10:15 S 6 10.00 Fair CLR 78.8 53.6 42% 79 29.86 0.0
13 09:55 S 10 G 17 10.00 Fair CLR 78.8 53.6 42% 79 29.87 0.0
13 09:30 S 8 10.00 Fair CLR 80.6 51.8 37% 80 29.85 0.0
13 09:15 S 8 10.00 Fair CLR 78.8 51.8 39% 79 29.85 0.0
13 08:55 SW 5 G 13 10.00 Fair CLR 77 51.8 42% 78 29.83 0.0
Date Time (pdt) Wind (mph) Vis. (mi.) Weather Sky Cond. Air Dwpt Max. Min. Relative Humidity Wind Chill (°F) Heat Index (°F) altimeter (in) sea level (mb) 1 hr 3 hr 6 hr
6 hour
Temperature (ºF) Pressure Precipitation (in)